{"data":{"norad_id":60494,"epoch":"2026-09-19T04:38:09.662496Z","epoch_age_seconds":127282,"freshness":"FRESH","line1":"1 60494U 24149AC  26262.19316739  .00027853  00000+0  60145-3 0  9993","line2":"2 60494  97.3677 346.8171 0002149 287.9968  72.1047 15.44498632116790","mean_motion":15.44498632,"eccentricity":0.0002149,"inclination_deg":97.3677,"raan_deg":346.8171,"arg_perigee_deg":287.9968,"mean_anomaly_deg":72.1047,"bstar":0.00060145,"rev_number":11679,"period_min":93.23413890858,"perigee_km":431.38795981842,"apogee_km":434.31532273644,"semimajor_km":6810.9886412774,"source":"CELESTRAK","updated_at":"2026-09-20T09:00:34.713219Z"}}